Tulsa Jones, OK

2:01 PM CDT on September 25, 2017 (GMT -0500)
Jones Jr.

Weather History for KRVS - November, 2012

Change the Weather History Date:

Friday, November 2, 2012

  Actual Average (KTUL) Record (KTUL)
Temperature  
Mean Temperature 67 °F -  
Max Temperature 89 °F 62 °F 89 °F (1909)
Min Temperature 46 °F 44 °F 20 °F (1966)
Cooling Degree Days 2    
Growing Degree Days 17 (Base 50)    
Moisture  
Dew Point 45 °F    
Average Humidity 56    
Maximum Humidity 89    
Minimum Humidity 21    
Precipitation  
Precipitation 0.00 in - - ()
Sea Level Pressure  
Sea Level Pressure 29.90 in    
Wind  
Wind Speed 3 mph (SSW)    
Max Wind Speed 16 mph    
Max Gust Speed 29 mph    
Visibility 10 miles    
Events      
Averages and records for this station are not official NWS values.
T = Trace of Precipitation, MM = Missing Value Source: NWS Daily Summary

Daily Weather History Graph

Daily Weather History Graph

Search for Another Location

Airport or City:

Trip Planner

Search our weather history database for the weather conditions in past years. The results will help you decide how hot, cold, wet, or windy it might be!

Date:

Astronomy

Nov. 02, 2012 Rise Set
Actual Time 7:47 AM CDT 6:26 PM CDT
Civil Twilight 7:21 AM CDT 6:53 PM CDT
Nautical Twilight 6:50 AM CDT 7:23 PM CDT
Astronomical Twilight 6:21 AM CDT 7:53 PM CDT
Moon 9:18 PM CDT (11/2) 11:05 AM CDT (11/2)
Length of Visible Light 11h 31m
Length of Day
10h 38m
Waning Gibbous, 87% of the Moon is Illuminated
Nov 2
Waning Gibbous
Nov 6
Last Quarter
Nov 13
New
Nov 20
First Quarter
Nov 28
Full

Hourly Weather History & Observations

Time (CDT) Temp. Dew Point Humidity Pressure Visibility Wind Dir Wind Speed Gust Speed Precip Events Conditions
12:53 AM 48.0 °F 42.1 °F 80% 29.96 in 10.0 mi Calm Calm - N/A   Clear
1:53 AM 46.0 °F 42.1 °F 86% 29.95 in 10.0 mi Calm Calm - N/A   Clear
2:53 AM 46.9 °F 43.0 °F 86% 29.94 in 10.0 mi Calm Calm - N/A   Clear
3:53 AM 46.0 °F 42.1 °F 86% 29.93 in 10.0 mi Calm Calm - N/A   Clear
4:53 AM 46.9 °F 43.0 °F 86% 29.93 in 10.0 mi Calm Calm - N/A   Clear
5:53 AM 46.9 °F 43.0 °F 86% 29.93 in 10.0 mi Calm Calm - N/A   Clear
6:53 AM 46.0 °F 42.1 °F 86% 29.94 in 10.0 mi Calm Calm - N/A   Clear
7:53 AM 46.0 °F 43.0 °F 89% 29.92 in 10.0 mi Calm Calm - N/A   Clear
8:53 AM 53.1 °F 46.9 °F 80% 29.94 in 10.0 mi Calm Calm - N/A   Clear
9:53 AM 59.0 °F 48.0 °F 67% 29.96 in 10.0 mi Calm Calm - N/A   Clear
10:53 AM 70.0 °F 48.0 °F 46% 29.95 in 10.0 mi South 8.1 mph - N/A   Clear
11:53 AM 78.1 °F 48.9 °F 36% 29.93 in 10.0 mi South 10.4 mph 18.4 mph N/A   Clear
12:53 PM 84.9 °F 48.9 °F 29% 29.90 in 10.0 mi SSW 11.5 mph - N/A   Clear
1:53 PM 88.0 °F 48.0 °F 25% 29.86 in 10.0 mi South 16.1 mph 21.9 mph N/A   Clear
2:53 PM 88.0 °F 46.9 °F 24% 29.84 in 10.0 mi SW 11.5 mph 20.7 mph N/A   Clear
3:53 PM 88.0 °F 43.0 °F 21% 29.83 in 10.0 mi SW 13.8 mph 28.8 mph N/A   Clear
4:53 PM 87.1 °F 44.1 °F 22% 29.82 in 10.0 mi SSW 13.8 mph 20.7 mph N/A   Clear
5:53 PM 84.0 °F 43.0 °F 24% 29.82 in 10.0 mi SSW 12.7 mph - N/A   Clear
6:53 PM 80.1 °F 46.0 °F 30% 29.83 in 10.0 mi SSW 5.8 mph - N/A   Clear
7:53 PM 70.0 °F 46.9 °F 44% 29.87 in 10.0 mi Calm Calm - N/A   Clear
8:53 PM 64.9 °F 48.0 °F 54% 29.86 in 10.0 mi Calm Calm - N/A   Clear
9:53 PM 63.0 °F 48.0 °F 58% 29.88 in 10.0 mi Calm Calm - N/A   Clear
10:53 PM 68.0 °F 48.0 °F 49% 29.89 in 10.0 mi SSW 3.5 mph - N/A   Clear
11:53 PM 71.1 °F 46.9 °F 42% 29.91 in 10.0 mi SW 5.8 mph - N/A   Clear